WXM80 ListenWXM80 Stop

You find our weather info also at:

UK Metoffice

WeatherCloud

Weather Underground

Northeastern Weather Network

AWEKAS

Citizen Weather Observer Program (CWOP)

HAMweather, WeatherForYou, PWS Weather


Weather Underground History page Text

Daily Summary for February 3, 2016 Units:  English    Metric   Both
« Previous Day
Next Day »
Daily Weekly Monthly Yearly Custom
  High: Low: Average:
Temperature: 56.9 °F 35.0 °F 50 °F
Dew Point: 56.1 °F 30.9 °F 47.5 °F
Humidity: 97 % 80 % 91 %
Wind Speed: 18.3 mph 0.0 mph 5.6 mph
Wind Gust: 24.2 mph - -
Wind:- - South
Pressure: 30.33 in 29.75 in -
Precipitation: 0.54 in    
Historical Graphs
 
 
Tabular Data for February 3, 2016
Time Temperature Dew Point Pressure Wind Wind Speed Wind Gust Humidity Rainfall Rate (Hourly)
00:06 38.0 °F 32.4 °F 30.31 in Calm     80 % 0.00 in
00:11 37.8 °F 32.5 °F 30.31 in Calm   2.3 mph 81 % 0.00 in
00:16 37.7 °F 32.4 °F 30.32 in Calm   2.3 mph 81 % 0.00 in
00:27 37.5 °F 32.8 °F 30.33 in Calm     83 % 0.00 in
00:32 37.4 °F 32.7 °F 30.32 in Calm     83 % 0.00 in
00:37 37.2 °F 32.5 °F 30.32 in Calm     83 % 0.00 in
00:42 37.0 °F 32.0 °F 30.32 in Calm     82 % 0.00 in
00:47 36.8 °F 32.1 °F 30.32 in Calm     83 % 0.00 in
00:52 36.7 °F 32.0 °F 30.31 in Calm   1.0 mph 83 % 0.00 in
00:57 36.4 °F 31.4 °F 30.31 in Calm   1.2 mph 82 % 0.00 in
01:02 36.1 °F 31.1 °F 30.30 in Calm     82 % 0.00 in
01:07 35.9 °F 30.9 °F 30.30 in Calm     82 % 0.00 in
01:13 35.7 °F 31.0 °F 30.30 in Calm     83 % 0.00 in
01:23 35.3 °F 31.2 °F 30.30 in Calm   1.2 mph 85 % 0.00 in
01:28 35.1 °F 31.3 °F 30.31 in Calm   1.2 mph 86 % 0.00 in
01:33 35.0 °F 31.5 °F 30.31 in SSE 0.9 mph 2.3 mph 87 % 0.00 in
01:38 35.0 °F 31.8 °F 30.30 in SSE 1.6 mph 3.5 mph 88 % 0.00 in
01:43 35.2 °F 32.6 °F 30.30 in SSE 0.3 mph 1.2 mph 90 % 0.00 in
01:48 35.5 °F 32.9 °F 30.30 in SSE 2.6 mph 3.5 mph 90 % 0.00 in
01:53 36.0 °F 33.6 °F 30.30 in SSE 3.3 mph 6.0 mph 91 % 0.00 in
01:58 36.8 °F 34.4 °F 30.30 in South 1.2 mph 5.8 mph 91 % 0.00 in
02:04 37.5 °F 34.8 °F 30.30 in South 2.1 mph 3.5 mph 90 % 0.00 in
02:09 38.0 °F 35.0 °F 30.31 in South 0.5 mph 3.5 mph 89 % 0.00 in
02:14 38.2 °F 35.0 °F 30.30 in South 0.1 mph 3.5 mph 88 % 0.00 in
02:19 38.3 °F 35.1 °F 30.30 in South 0.5 mph 1.2 mph 88 % 0.00 in
02:29 38.4 °F 34.9 °F 30.30 in South 1.6 mph 3.5 mph 87 % 0.00 in
02:34 38.6 °F 35.1 °F 30.29 in South 0.9 mph 2.0 mph 87 % 0.00 in
02:39 38.5 °F 34.7 °F 30.30 in South 0.8 mph 1.2 mph 86 % 0.00 in
02:44 38.5 °F 34.7 °F 30.29 in South 0.8 mph 2.3 mph 86 % 0.00 in
02:49 38.4 °F 34.6 °F 30.29 in South 0.2 mph 1.2 mph 86 % 0.00 in
02:55 38.4 °F 34.6 °F 30.30 in Calm     86 % 0.00 in
03:00 38.3 °F 34.5 °F 30.30 in Calm   1.2 mph 86 % 0.00 in
03:05 38.2 °F 34.4 °F 30.28 in South 2.1 mph 3.5 mph 86 % 0.00 in
03:10 37.9 °F 34.1 °F 30.27 in SSE 2.2 mph 3.5 mph 86 % 0.00 in
03:15 37.8 °F 34.0 °F 30.27 in SSE 1.3 mph 3.5 mph 86 % 0.00 in
03:20 37.7 °F 34.2 °F 30.27 in SSE 0.8 mph 3.5 mph 87 % 0.00 in
03:25 37.7 °F 34.5 °F 30.27 in SE 0.6 mph 2.3 mph 88 % 0.00 in
03:35 37.8 °F 34.8 °F 30.28 in Calm     89 % 0.00 in
03:40 37.8 °F 34.6 °F 30.28 in SE 0.1 mph 1.2 mph 88 % 0.00 in
03:46 37.7 °F 34.2 °F 30.28 in Calm     87 % 0.00 in
03:51 37.7 °F 34.5 °F 30.28 in Calm     88 % 0.00 in
03:56 37.6 °F 34.1 °F 30.27 in Calm     87 % 0.00 in
04:01 37.4 °F 33.9 °F 30.27 in Calm     87 % 0.00 in
04:06 37.4 °F 33.9 °F 30.27 in Calm   1.2 mph 87 % 0.00 in
04:11 37.3 °F 33.8 °F 30.28 in Calm     87 % 0.00 in
04:16 37.3 °F 34.1 °F 30.28 in Calm     88 % 0.00 in
04:21 37.2 °F 34.0 °F 30.28 in Calm     88 % 0.00 in
04:31 37.1 °F 34.2 °F 30.27 in Calm     89 % 0.00 in
04:37 37.1 °F 34.2 °F 30.28 in Calm     89 % 0.00 in
04:42 37.2 °F 34.5 °F 30.28 in Calm     90 % 0.00 in
04:47 37.3 °F 34.6 °F 30.27 in SE 0.2 mph 1.2 mph 90 % 0.00 in
04:52 37.4 °F 34.7 °F 30.26 in SE 0.2 mph 1.2 mph 90 % 0.00 in
04:57 37.4 °F 34.7 °F 30.26 in Calm     90 % 0.00 in
05:02 37.4 °F 34.7 °F 30.25 in SE 0.3 mph 1.2 mph 90 % 0.00 in
05:07 37.4 °F 34.5 °F 30.25 in Calm     89 % 0.00 in
05:12 37.4 °F 34.7 °F 30.25 in SE 0.2 mph 2.3 mph 90 % 0.00 in
05:28 37.7 °F 35.6 °F 30.23 in SE 1.3 mph 2.3 mph 92 % 0.00 in
05:33 37.8 °F 35.7 °F 30.23 in SE 1.0 mph 2.3 mph 92 % 0.00 in
05:38 38.0 °F 35.9 °F 30.23 in SE 0.7 mph 2.3 mph 92 % 0.00 in
05:43 38.3 °F 36.2 °F 30.23 in SE 0.8 mph 2.0 mph 92 % 0.00 in
05:48 38.6 °F 36.8 °F 30.23 in SE 0.3 mph 2.3 mph 93 % 0.00 in
05:53 38.8 °F 36.9 °F 30.23 in Calm   1.2 mph 93 % 0.00 in
05:58 39.0 °F 37.1 °F 30.23 in SE 0.1 mph 1.2 mph 93 % 0.00 in
06:03 39.2 °F 37.3 °F 30.22 in SE 1.0 mph 2.3 mph 93 % 0.00 in
06:08 39.4 °F 37.5 °F 30.22 in Calm     93 % 0.00 in
06:19 40.2 °F 38.3 °F 30.22 in SE 2.8 mph 5.8 mph 93 % 0.00 in
06:24 40.8 °F 39.2 °F 30.23 in SE 3.4 mph 5.8 mph 94 % 0.00 in
06:29 41.3 °F 39.7 °F 30.23 in ESE 0.9 mph 3.5 mph 94 % 0.00 in
06:34 41.8 °F 39.9 °F 30.22 in SE 1.6 mph 6.0 mph 93 % 0.00 in
06:44 42.4 °F 40.2 °F 30.22 in SE 0.3 mph 3.5 mph 92 % 0.00 in
06:49 42.7 °F 40.5 °F 30.22 in SE 1.6 mph 3.5 mph 92 % 0.00 in
06:54 42.9 °F 40.7 °F 30.21 in SE 1.1 mph 3.0 mph 92 % 0.00 in
06:59 43.1 °F 40.9 °F 30.21 in ESE 2.0 mph 3.5 mph 92 % 0.00 in
07:10 43.9 °F 41.4 °F 30.19 in ESE 5.9 mph 5.9 mph 91 % 0.00 in
07:15 44.3 °F 41.8 °F 30.19 in SE 6.7 mph 12.0 mph 91 % 0.00 in
07:25 45.4 °F 42.6 °F 30.17 in SE 8.2 mph 13.8 mph 90 % 0.00 in
07:30 46.0 °F 42.9 °F 30.17 in SSE 5.6 mph 8.1 mph 89 % 0.00 in
07:35 46.4 °F 43.0 °F 30.18 in SSW 11.1 mph 15.0 mph 88 % 0.00 in
07:40 46.9 °F 43.5 °F 30.18 in SE 7.8 mph 19.6 mph 88 % 0.00 in
07:45 47.4 °F 43.7 °F 30.17 in SE 8.5 mph 16.1 mph 87 % 0.00 in
07:50 47.8 °F 43.8 °F 30.17 in SSE 13.2 mph 20.7 mph 86 % 0.00 in
07:55 48.1 °F 44.1 °F 30.17 in SSE 12.8 mph 19.6 mph 86 % 0.00 in
08:01 48.3 °F 44.3 °F 30.17 in SSE 6.6 mph 19.6 mph 86 % 0.00 in
08:06 48.5 °F 44.2 °F 30.17 in ESE 10.5 mph 19.6 mph 85 % 0.00 in
08:11 48.6 °F 44.6 °F 30.16 in SSE 9.4 mph 13.8 mph 86 % 0.00 in
08:16 48.7 °F 44.7 °F 30.17 in South 5.7 mph 11.5 mph 86 % 0.00 in
08:21 48.8 °F 44.8 °F 30.16 in SSE 6.6 mph 10.4 mph 86 % 0.00 in
08:26 48.7 °F 45.0 °F 30.16 in SE 5.4 mph 10.4 mph 87 % 0.00 in
08:31 48.7 °F 45.0 °F 30.15 in South 11.1 mph 16.0 mph 87 % 0.00 in
08:36 49.0 °F 45.3 °F 30.14 in WSW 7.0 mph 12.7 mph 87 % 0.00 in
08:41 49.2 °F 45.5 °F 30.14 in SE 8.2 mph 19.6 mph 87 % 0.00 in
08:46 49.4 °F 45.7 °F 30.13 in South 10.7 mph 19.0 mph 87 % 0.00 in
08:52 49.6 °F 45.9 °F 30.14 in SSE 12.4 mph 19.6 mph 87 % 0.00 in
08:57 49.9 °F 46.2 °F 30.13 in South 12.3 mph 19.6 mph 87 % 0.00 in
09:02 50.1 °F 46.1 °F 30.13 in SSE 9.7 mph 15.0 mph 86 % 0.00 in
09:07 50.3 °F 46.3 °F 30.13 in SSE 9.6 mph 12.7 mph 86 % 0.00 in
09:12 50.4 °F 46.4 °F 30.13 in SE 10.0 mph 20.7 mph 86 % 0.00 in
09:17 50.5 °F 46.5 °F 30.12 in South 11.6 mph 18.4 mph 86 % 0.00 in
09:22 50.6 °F 46.6 °F 30.11 in South 8.2 mph 16.1 mph 86 % 0.00 in
09:32 50.9 °F 46.9 °F 30.12 in SSE 12.2 mph 19.6 mph 86 % 0.00 in
09:37 51.2 °F 47.2 °F 30.11 in South 15.0 mph 17.3 mph 86 % 0.00 in
09:43 51.4 °F 47.4 °F 30.11 in SSE 7.7 mph 12.7 mph 86 % 0.00 in
09:58 51.8 °F 47.7 °F 30.09 in SSE 8.0 mph 15.0 mph 86 % 0.00 in
10:03 52.1 °F 48.0 °F 30.09 in South 13.6 mph 21.9 mph 86 % 0.00 in
10:08 52.5 °F 48.4 °F 30.08 in SSE 11.2 mph 16.0 mph 86 % 0.00 in
10:13 53.0 °F 48.9 °F 30.08 in South 9.0 mph 16.0 mph 86 % 0.00 in
10:18 53.3 °F 48.9 °F 30.08 in South 7.8 mph 12.7 mph 85 % 0.00 in
10:23 53.6 °F 49.2 °F 30.08 in South 12.3 mph 19.6 mph 85 % 0.00 in
10:29 53.8 °F 49.1 °F 30.07 in SSE 11.0 mph 22.0 mph 84 % 0.00 in
10:34 54.1 °F 49.4 °F 30.07 in SSE 8.6 mph 19.6 mph 84 % 0.00 in
10:44 54.7 °F 50.0 °F 30.06 in South 9.4 mph 19.6 mph 84 % 0.00 in
10:49 54.9 °F 50.2 °F 30.06 in SE 6.0 mph 9.2 mph 84 % 0.00 in
10:54 55.1 °F 50.4 °F 30.06 in SSE 15.4 mph 23.0 mph 84 % 0.00 in
10:59 55.3 °F 50.5 °F 30.05 in South 10.0 mph 15.0 mph 84 % 0.00 in
11:04 55.4 °F 50.6 °F 30.05 in South 7.1 mph 12.0 mph 84 % 0.00 in
11:09 55.4 °F 50.6 °F 30.04 in South 11.0 mph 17.3 mph 84 % 0.00 in
11:14 55.4 °F 50.6 °F 30.04 in South 14.3 mph 24.2 mph 84 % 0.00 in
11:20 55.4 °F 50.6 °F 30.03 in South 8.3 mph 13.0 mph 84 % 0.00 in
11:30 55.6 °F 50.8 °F 30.03 in SSE 6.9 mph 12.0 mph 84 % 0.00 in
11:35 55.6 °F 50.8 °F 30.02 in South 8.1 mph 20.0 mph 84 % 0.00 in
11:40 55.6 °F 51.2 °F 30.02 in SE 11.4 mph 21.0 mph 85 % 0.00 in
11:50 55.7 °F 51.3 °F 30.01 in SSE 7.5 mph 18.4 mph 85 % 0.00 in
11:55 55.7 °F 51.3 °F 30.01 in SE 6.0 mph 8.1 mph 85 % 0.00 in
12:00 55.8 °F 51.7 °F 30.00 in South 11.9 mph 15.0 mph 86 % 0.00 in
12:05 55.9 °F 51.8 °F 30.00 in South 11.1 mph 19.6 mph 86 % 0.00 in
12:11 56.0 °F 51.9 °F 29.99 in SW 13.2 mph 19.6 mph 86 % 0.00 in
12:16 56.0 °F 51.9 °F 29.99 in SSW 11.4 mph 18.4 mph 86 % 0.00 in
12:21 56.0 °F 51.9 °F 29.99 in SSW 11.1 mph 24.2 mph 86 % 0.00 in
12:26 55.9 °F 52.1 °F 29.99 in South 12.6 mph 19.6 mph 87 % 0.00 in
12:31 55.8 °F 52.0 °F 29.98 in South 10.1 mph 19.6 mph 87 % 0.00 in
12:36 55.7 °F 51.9 °F 29.98 in South 6.3 mph 18.4 mph 87 % 0.00 in
12:41 55.6 °F 52.1 °F 29.96 in South 6.7 mph 11.5 mph 88 % 0.00 in
12:46 55.6 °F 52.1 °F 29.96 in SSE 12.8 mph 17.3 mph 88 % 0.00 in
12:51 55.7 °F 52.2 °F 29.96 in SSW 7.1 mph 13.0 mph 88 % 0.00 in
12:56 55.8 °F 52.6 °F 29.95 in SE 8.5 mph 16.1 mph 89 % 0.00 in
13:02 55.8 °F 52.9 °F 29.95 in SSE 9.3 mph 19.6 mph 90 % 0.00 in
13:07 55.8 °F 53.2 °F 29.95 in SSE 6.7 mph 19.6 mph 91 % 0.00 in
13:12 55.9 °F 53.3 °F 29.94 in SSE 9.0 mph 16.1 mph 91 % 0.01 in
13:17 56.1 °F 53.8 °F 29.95 in South 13.4 mph 20.7 mph 92 % 0.01 in
13:22 56.2 °F 53.9 °F 29.94 in South 9.7 mph 15.0 mph 92 % 0.01 in
13:27 56.3 °F 54.0 °F 29.94 in SW 6.1 mph 11.5 mph 92 % 0.02 in
13:32 56.5 °F 54.5 °F 29.94 in South 9.5 mph 14.0 mph 93 % 0.02 in
13:37 56.8 °F 54.8 °F 29.94 in South 10.2 mph 17.3 mph 93 % 0.02 in
13:42 56.9 °F 54.9 °F 29.93 in SSW 8.8 mph 17.3 mph 93 % 0.03 in
13:47 56.9 °F 54.9 °F 29.94 in SSW 7.5 mph 12.7 mph 93 % 0.03 in
13:53 56.9 °F 54.9 °F 29.93 in North 6.5 mph 13.8 mph 93 % 0.03 in
13:58 56.9 °F 54.9 °F 29.94 in SW 7.3 mph 20.7 mph 93 % 0.05 in
14:03 56.9 °F 54.9 °F 29.94 in South 9.4 mph 17.3 mph 93 % 0.06 in
14:08 56.8 °F 54.8 °F 29.95 in South 7.6 mph 15.0 mph 93 % 0.05 in
14:13 56.7 °F 55.0 °F 29.95 in South 8.6 mph 15.0 mph 94 % 0.06 in
14:18 56.7 °F 55.0 °F 29.94 in SW 8.8 mph 12.7 mph 94 % 0.06 in
14:23 56.7 °F 55.0 °F 29.94 in South 5.0 mph 16.1 mph 94 % 0.06 in
14:28 56.8 °F 55.1 °F 29.94 in South 9.5 mph 16.1 mph 94 % 0.06 in
14:38 56.7 °F 55.0 °F 29.94 in South 8.2 mph 17.3 mph 94 % 0.05 in
14:44 56.6 °F 54.9 °F 29.94 in South 8.4 mph 17.0 mph 94 % 0.07 in
14:49 56.6 °F 54.9 °F 29.94 in SSW 8.2 mph 15.0 mph 94 % 0.14 in
14:54 56.6 °F 54.9 °F 29.94 in South 7.8 mph 18.4 mph 94 % 0.13 in
14:59 56.5 °F 54.8 °F 29.94 in South 8.4 mph 12.7 mph 94 % 0.12 in
15:04 56.5 °F 54.8 °F 29.94 in SSW 8.2 mph 11.5 mph 94 % 0.11 in
15:09 56.5 °F 54.8 °F 29.94 in SSW 7.7 mph 15.0 mph 94 % 0.11 in
15:14 56.4 °F 55.0 °F 29.94 in WSW 7.1 mph 13.8 mph 95 % 0.11 in
15:19 56.5 °F 55.1 °F 29.93 in SSW 7.2 mph 11.5 mph 95 % 0.11 in
15:24 56.6 °F 55.2 °F 29.93 in SSW 10.5 mph 16.1 mph 95 % 0.12 in
15:29 56.6 °F 55.2 °F 29.93 in SSW 11.0 mph 17.3 mph 95 % 0.11 in
15:35 56.6 °F 55.2 °F 29.94 in SW 6.9 mph 15.0 mph 95 % 0.12 in
15:40 56.6 °F 55.2 °F 29.94 in South 7.0 mph 13.8 mph 95 % 0.13 in
15:45 56.6 °F 55.2 °F 29.93 in South 8.9 mph 12.7 mph 95 % 0.09 in
15:50 56.7 °F 55.3 °F 29.94 in South 10.9 mph 19.6 mph 95 % 0.06 in
15:55 56.7 °F 55.3 °F 29.93 in SSW 8.2 mph 15.0 mph 95 % 0.08 in
16:00 56.7 °F 55.3 °F 29.93 in South 7.9 mph 16.1 mph 95 % 0.08 in
16:05 56.6 °F 55.2 °F 29.93 in South 9.4 mph 16.0 mph 95 % 0.10 in
16:10 56.7 °F 55.3 °F 29.93 in South 9.1 mph 11.5 mph 95 % 0.10 in
16:15 56.6 °F 55.2 °F 29.93 in SSW 6.6 mph 11.5 mph 95 % 0.11 in
16:20 56.6 °F 55.2 °F 29.93 in South 8.3 mph 15.0 mph 95 % 0.13 in
16:26 56.6 °F 55.2 °F 29.93 in South 7.1 mph 12.7 mph 95 % 0.12 in
16:31 56.5 °F 55.1 °F 29.93 in SW 6.5 mph 11.5 mph 95 % 0.11 in
16:36 56.4 °F 55.0 °F 29.94 in SW 6.6 mph 11.5 mph 95 % 0.11 in
16:41 56.2 °F 54.8 °F 29.94 in WSW 5.4 mph 10.4 mph 95 % 0.10 in
16:46 56.0 °F 54.6 °F 29.94 in SW 4.9 mph 11.5 mph 95 % 0.09 in
16:51 55.9 °F 54.5 °F 29.94 in SSW 4.6 mph 8.1 mph 95 % 0.09 in
16:56 55.7 °F 54.3 °F 29.94 in South 5.9 mph 10.0 mph 95 % 0.08 in
17:01 55.6 °F 54.2 °F 29.92 in WSW 4.9 mph 13.8 mph 95 % 0.08 in
17:06 55.6 °F 54.5 °F 29.93 in SSW 5.5 mph 11.5 mph 96 % 0.07 in
17:11 55.7 °F 54.6 °F 29.93 in SSW 5.7 mph 8.1 mph 96 % 0.06 in
17:17 55.7 °F 54.6 °F 29.93 in South 4.8 mph 6.9 mph 96 % 0.05 in
17:22 55.8 °F 54.7 °F 29.93 in South 1.7 mph 5.8 mph 96 % 0.04 in
17:27 55.9 °F 54.8 °F 29.92 in SW 7.4 mph 11.5 mph 96 % 0.04 in
17:32 56.0 °F 54.9 °F 29.92 in SSW 4.1 mph 6.9 mph 96 % 0.04 in
17:37 56.1 °F 55.0 °F 29.92 in South 5.8 mph 10.4 mph 96 % 0.04 in
17:42 56.3 °F 55.5 °F 29.92 in South 5.7 mph 10.4 mph 97 % 0.04 in
17:47 56.4 °F 55.6 °F 29.92 in South 6.6 mph 11.5 mph 97 % 0.05 in
17:52 56.5 °F 55.7 °F 29.92 in SW 7.2 mph 11.5 mph 97 % 0.04 in
17:57 56.4 °F 55.6 °F 29.93 in South 3.8 mph 6.9 mph 97 % 0.04 in
18:02 56.3 °F 55.5 °F 29.92 in SSE 7.1 mph 11.5 mph 97 % 0.04 in
18:08 56.2 °F 55.1 °F 29.92 in South 4.4 mph 7.0 mph 96 % 0.04 in
18:13 56.0 °F 54.9 °F 29.93 in SSW 2.8 mph 8.1 mph 96 % 0.04 in
18:18 56.0 °F 54.9 °F 29.92 in South 4.5 mph 10.4 mph 96 % 0.03 in
18:23 55.9 °F 54.8 °F 29.92 in South 5.3 mph 9.2 mph 96 % 0.04 in
18:28 55.8 °F 54.7 °F 29.92 in SSE 3.6 mph 5.8 mph 96 % 0.04 in
18:33 55.8 °F 54.7 °F 29.91 in South 5.4 mph 11.5 mph 96 % 0.03 in
18:38 55.7 °F 54.6 °F 29.91 in South 1.3 mph 4.6 mph 96 % 0.03 in
18:48 55.6 °F 54.5 °F 29.90 in South 2.8 mph 4.6 mph 96 % 0.03 in
18:53 55.5 °F 54.4 °F 29.89 in South 3.7 mph 4.6 mph 96 % 0.03 in
18:59 55.5 °F 54.7 °F 29.90 in South 5.8 mph 11.5 mph 97 % 0.04 in
19:04 55.5 °F 54.7 °F 29.90 in SE 7.3 mph 11.5 mph 97 % 0.04 in
19:09 55.5 °F 54.7 °F 29.90 in ESE 5.7 mph 12.7 mph 97 % 0.04 in
19:14 55.5 °F 54.4 °F 29.88 in SSW 6.5 mph 11.5 mph 96 % 0.04 in
19:19 55.4 °F 54.3 °F 29.88 in SSE 4.3 mph 10.4 mph 96 % 0.04 in
19:24 55.4 °F 54.6 °F 29.88 in South 6.4 mph 12.7 mph 97 % 0.04 in
19:29 55.4 °F 54.6 °F 29.88 in South 3.8 mph 7.0 mph 97 % 0.04 in
19:34 55.4 °F 54.6 °F 29.88 in South 9.2 mph 11.5 mph 97 % 0.04 in
19:39 55.4 °F 54.6 °F 29.88 in SSE 4.8 mph 10.4 mph 97 % 0.05 in
19:44 55.4 °F 54.6 °F 29.88 in SSW 7.5 mph 11.5 mph 97 % 0.04 in
19:50 55.4 °F 54.6 °F 29.88 in South 9.2 mph 15.0 mph 97 % 0.04 in
19:55 55.4 °F 54.6 °F 29.88 in SSW 6.8 mph 16.1 mph 97 % 0.05 in
20:00 55.3 °F 54.5 °F 29.87 in SSE 4.3 mph 11.5 mph 97 % 0.04 in
20:05 55.3 °F 54.5 °F 29.85 in South 4.4 mph 10.4 mph 97 % 0.04 in
20:10 55.2 °F 54.4 °F 29.84 in SSE 6.0 mph 15.0 mph 97 % 0.03 in
20:15 55.2 °F 54.4 °F 29.83 in South 10.1 mph 17.3 mph 97 % 0.04 in
20:20 55.2 °F 54.4 °F 29.83 in SE 9.4 mph 17.3 mph 97 % 0.04 in
20:25 55.2 °F 54.4 °F 29.83 in South 7.1 mph 18.4 mph 97 % 0.03 in
20:30 55.2 °F 54.4 °F 29.83 in SSW 9.1 mph 11.5 mph 97 % 0.04 in
20:35 55.1 °F 54.3 °F 29.81 in SSE 8.9 mph 13.8 mph 97 % 0.04 in
20:41 54.9 °F 53.8 °F 29.80 in SSE 9.1 mph 13.8 mph 96 % 0.03 in
20:46 54.8 °F 53.7 °F 29.78 in SSE 10.4 mph 17.3 mph 96 % 0.03 in
20:51 54.8 °F 53.7 °F 29.78 in SSW 14.1 mph 23.0 mph 96 % 0.03 in
20:56 54.9 °F 54.1 °F 29.77 in SSE 12.8 mph 19.6 mph 97 % 0.03 in
21:01 55.1 °F 54.3 °F 29.75 in South 18.3 mph 22.0 mph 97 % 0.03 in
21:06 55.4 °F 54.6 °F 29.76 in SSW 12.4 mph 19.6 mph 97 % 0.03 in
21:11 55.5 °F 54.7 °F 29.76 in SSE 10.0 mph 21.0 mph 97 % 0.03 in
21:16 56.0 °F 55.2 °F 29.77 in SSE 9.5 mph 20.7 mph 97 % 0.03 in
21:21 56.5 °F 55.7 °F 29.78 in South 9.5 mph 17.3 mph 97 % 0.03 in
21:26 56.6 °F 55.8 °F 29.78 in SE 8.6 mph 11.5 mph 97 % 0.03 in
21:31 56.8 °F 56.0 °F 29.80 in SSE 6.7 mph 11.5 mph 97 % 0.02 in
21:37 56.9 °F 56.1 °F 29.80 in SSW 9.6 mph 11.5 mph 97 % 0.02 in
21:42 56.9 °F 56.1 °F 29.81 in South 7.4 mph 13.8 mph 97 % 0.02 in
21:47 56.9 °F 56.1 °F 29.82 in SW 5.4 mph 9.2 mph 97 % 0.03 in
21:52 56.9 °F 56.1 °F 29.84 in SW 4.5 mph 6.9 mph 97 % 0.03 in
21:57 56.8 °F 56.0 °F 29.83 in SW 4.9 mph 8.0 mph 97 % 0.02 in
22:02 56.8 °F 55.7 °F 29.84 in SSW 4.9 mph 8.1 mph 96 % 0.02 in
22:07 56.7 °F 55.6 °F 29.84 in SW 2.6 mph 4.6 mph 96 % 0.02 in
22:12 56.7 °F 55.6 °F 29.84 in WNW 3.4 mph 5.0 mph 96 % 0.03 in
22:17 56.6 °F 55.5 °F 29.84 in SSW 1.4 mph 3.5 mph 96 % 0.02 in
22:22 56.6 °F 55.5 °F 29.84 in WSW 6.3 mph 9.2 mph 96 % 0.02 in
22:28 56.5 °F 55.4 °F 29.84 in SSW 2.2 mph 3.5 mph 96 % 0.02 in
22:38 56.4 °F 55.0 °F 29.85 in SSW 0.5 mph 2.3 mph 95 % 0.02 in
22:48 56.3 °F 54.9 °F 29.85 in South 3.7 mph 5.8 mph 95 % 0.02 in
22:53 56.2 °F 54.8 °F 29.85 in WSW 1.5 mph 7.0 mph 95 % 0.02 in
22:58 56.2 °F 54.8 °F 29.86 in SSW 2.7 mph 6.0 mph 95 % 0.02 in
23:03 56.1 °F 54.7 °F 29.87 in SW 4.0 mph 9.2 mph 95 % 0.02 in
23:08 56.0 °F 54.6 °F 29.87 in WSW 2.0 mph 5.8 mph 95 % 0.02 in
23:13 55.8 °F 54.4 °F 29.87 in West 1.5 mph 8.0 mph 95 % 0.02 in
23:19 55.7 °F 54.0 °F 29.87 in SW 3.4 mph 6.0 mph 94 % 0.02 in
23:24 55.5 °F 53.8 °F 29.86 in WSW 2.3 mph 5.8 mph 94 % 0.02 in
23:29 55.3 °F 53.6 °F 29.87 in SW 1.4 mph 4.6 mph 94 % 0.02 in
23:34 55.1 °F 53.4 °F 29.87 in WSW 3.1 mph 5.0 mph 94 % 0.02 in
23:39 55.0 °F 53.3 °F 29.87 in SSW 2.9 mph 3.5 mph 94 % 0.02 in
23:44 54.9 °F 53.2 °F 29.87 in SW 2.6 mph 3.5 mph 94 % 0.02 in
23:49 54.8 °F 53.1 °F 29.87 in SSW 0.7 mph 3.5 mph 94 % 0.02 in
23:54 54.7 °F 53.0 °F 29.87 in SW 1.1 mph 3.5 mph 94 % 0.02 in
23:59 54.6 °F 52.9 °F 29.88 in SW 3.7 mph 5.8 mph 94 % 0.02 in
Crab Meadow Weather
Compliments of Weather Underground - 2.75 mb

Script developed by  Jim McMurry - jmcmurry@mwt.net Adapted for the template by  Wim van der Kuil - Leuven-Template.eu

Recycling: Americans threw away 38 billion plastic water bottles in 2006. A million and a half barrels of oil - enough to fuel 100,000 cars for a year - were used to produce the bottles.